• Em Portugal
  • Lista de países
  • Para 7 dias
  • Temperatura da água
  • Mapas de satélite
  • Mapa do tempo
  • Widgets de tempo
  • user-avatar
    Iniciar Sessão

    Previsão horária em Jaú

    Hoje, 24 Janeiro, Quarta-feira

    Tempo Temperatura Precipitação Vento Pressão Humidade
    00:00 +20°C° 0 mm 6 m/s 760 mmHg 38%
    01:00 +19°C° 0 mm 5 m/s 760 mmHg 37%
    02:00 +19°C° 0 mm 5 m/s 760 mmHg 36%
    03:00 +19°C° 0 mm 5 m/s 759 mmHg 35%
    04:00 +19°C° 0 mm 4 m/s 760 mmHg 33%
    05:00 +18°C° 0 mm 4 m/s 760 mmHg 32%
    06:00 +18°C° 0 mm 4 m/s 760 mmHg 30%
    07:00 +19°C° 0 mm 4 m/s 760 mmHg 28%
    08:00 +20°C° 0 mm 4 m/s 761 mmHg 26%
    09:00 +21°C° 0 mm 5 m/s 761 mmHg 24%
    10:00 +22°C° 0 mm 4 m/s 761 mmHg 22%
    11:00 +23°C° 0 mm 4 m/s 760 mmHg 20%
    12:00 +26°C° 0 mm 4 m/s 760 mmHg 19%
    13:00 +26°C° 0 mm 3 m/s 760 mmHg 18%
    14:00 +27°C° 0 mm 3 m/s 759 mmHg 18%
    15:00 +27°C° 0 mm 2 m/s 759 mmHg 17%
    16:00 +26°C° 0 mm 3 m/s 759 mmHg 19%
    17:00 +25°C° 0 mm 3 m/s 759 mmHg 22%
    18:00 +24°C° 0 mm 3 m/s 760 mmHg 24%
    19:00 +23°C° 0 mm 4 m/s 760 mmHg 26%
    20:00 +23°C° 0 mm 4 m/s 760 mmHg 28%
    21:00 +22°C° 0 mm 4 m/s 760 mmHg 30%
    22:00 +22°C° 0 mm 4 m/s 760 mmHg 32%
    23:00 +21°C° 0 mm 3 m/s 760 mmHg 34%

    Amanhã, 25 Janeiro, Quinta-feira

    Tempo Temperatura Precipitação Vento Pressão Humidade
    00:00 +21°C° 0 mm 3 m/s 760 mmHg 36%
    01:00 +21°C° 0 mm 3 m/s 760 mmHg 37%
    02:00 +20°C° 0 mm 2 m/s 760 mmHg 37%
    03:00 +20°C° 0 mm 2 m/s 760 mmHg 38%
    04:00 +19°C° 0 mm 2 m/s 760 mmHg 38%
    05:00 +19°C° 0 mm 2 m/s 760 mmHg 38%
    06:00 +18°C° 0 mm 2 m/s 760 mmHg 38%
    07:00 +20°C° 0 mm 2 m/s 760 mmHg 34%
    08:00 +21°C° 0 mm 2 m/s 761 mmHg 30%
    09:00 +24°C° 0 mm 2 m/s 761 mmHg 26%
    10:00 +25°C° 0 mm 2 m/s 761 mmHg 24%
    11:00 +26°C° 0 mm 2 m/s 760 mmHg 21%
    12:00 +27°C° 0 mm 2 m/s 760 mmHg 19%
    13:00 +27°C° 0 mm 2 m/s 760 mmHg 19%
    14:00 +27°C° 0 mm 2 m/s 759 mmHg 18%
    15:00 +27°C° 0 mm 2 m/s 759 mmHg 18%
    16:00 +27°C° 0 mm 3 m/s 759 mmHg 20%
    17:00 +26°C° 0 mm 3 m/s 759 mmHg 22%
    18:00 +25°C° 0 mm 4 m/s 759 mmHg 25%
    19:00 +23°C° 0 mm 4 m/s 759 mmHg 31%
    20:00 +23°C° 0 mm 5 m/s 759 mmHg 37%
    21:00 +23°C° 0 mm 5 m/s 759 mmHg 44%
    22:00 +22°C° 0 mm 5 m/s 759 mmHg 46%
    23:00 +22°C° 0 mm 5 m/s 759 mmHg 48%

    Depois de amanhã, 26 Janeiro, Sexta-feira

    Tempo Temperatura Precipitação Vento Pressão Humidade
    00:00 +22°C° 0 mm 5 m/s 759 mmHg 50%
    01:00 +21°C° 0 mm 4 m/s 759 mmHg 49%
    02:00 +21°C° 0 mm 4 m/s 759 mmHg 49%
    03:00 +21°C° 0 mm 4 m/s 758 mmHg 49%
    04:00 +21°C° 0 mm 4 m/s 759 mmHg 50%
    05:00 +20°C° 0 mm 4 m/s 759 mmHg 50%
    06:00 +20°C° 0 mm 4 m/s 759 mmHg 51%
    07:00 +21°C° 0 mm 5 m/s 759 mmHg 46%
    08:00 +22°C° 0 mm 5 m/s 760 mmHg 41%
    09:00 +23°C° 0 mm 5 m/s 760 mmHg 36%
    10:00 +26°C° 0 mm 4 m/s 760 mmHg 31%
    11:00 +27°C° 0 mm 4 m/s 760 mmHg 26%
    12:00 +28°C° 0 mm 4 m/s 759 mmHg 21%
    13:00 +29°C° 0 mm 4 m/s 759 mmHg 20%
    14:00 +30°C° 0 mm 3 m/s 758 mmHg 19%
    15:00 +30°C° 0 mm 3 m/s 758 mmHg 18%
    16:00 +29°C° 0 mm 3 m/s 758 mmHg 19%
    17:00 +28°C° 0 mm 3 m/s 758 mmHg 21%
    18:00 +27°C° 0 mm 4 m/s 758 mmHg 22%
    19:00 +26°C° 0 mm 4 m/s 758 mmHg 26%
    20:00 +25°C° 0 mm 4 m/s 759 mmHg 29%
    21:00 +25°C° 0 mm 4 m/s 759 mmHg 32%
    22:00 +23°C° 0 mm 4 m/s 759 mmHg 33%
    23:00 +22°C° 0 mm 3 m/s 759 mmHg 35%

    27 Janeiro, Sábado

    Tempo Temperatura Precipitação Vento Pressão Humidade
    00:00 +21°C° 0 mm 2 m/s 759 mmHg 36%
    01:00 +21°C° 0 mm 2 m/s 759 mmHg 37%
    02:00 +21°C° 0 mm 2 m/s 758 mmHg 38%
    03:00 +21°C° 0 mm 2 m/s 758 mmHg 39%
    04:00 +21°C° 0 mm 2 m/s 758 mmHg 41%
    05:00 +20°C° 0 mm 2 m/s 759 mmHg 43%
    06:00 +20°C° 0 mm 2 m/s 759 mmHg 44%
    07:00 +21°C° 0 mm 2 m/s 759 mmHg 42%
    08:00 +24°C° 0 mm 2 m/s 759 mmHg 39%
    09:00 +25°C° 0 mm 2 m/s 760 mmHg 37%
    10:00 +26°C° 0 mm 2 m/s 759 mmHg 36%
    11:00 +26°C° 0 mm 3 m/s 759 mmHg 34%
    12:00 +27°C° 0 mm 3 m/s 759 mmHg 33%
    13:00 +27°C° 0 mm 3 m/s 758 mmHg 34%
    14:00 +27°C° 0 mm 4 m/s 758 mmHg 34%
    15:00 +27°C° 0 mm 4 m/s 757 mmHg 34%
    16:00 +26°C° 0 mm 4 m/s 758 mmHg 40%
    17:00 +25°C° 0 mm 5 m/s 758 mmHg 45%
    18:00 +23°C° 0 mm 5 m/s 758 mmHg 50%
    19:00 +22°C° 0 mm 6 m/s 759 mmHg 54%
    20:00 +21°C° 0 mm 7 m/s 759 mmHg 58%
    21:00 +21°C° 0 mm 8 m/s 760 mmHg 63%
    22:00 +19°C° 0 mm 9 m/s 760 mmHg 60%
    23:00 +19°C° 0 mm 10 m/s 760 mmHg 58%

    28 Janeiro, Domingo

    Tempo Temperatura Precipitação Vento Pressão Humidade
    00:00 +18°C° 0 mm 11 m/s 760 mmHg 55%
    01:00 +18°C° 0 mm 12 m/s 760 mmHg 53%
    02:00 +18°C° 0 mm 12 m/s 761 mmHg 50%
    03:00 +17°C° 0 mm 12 m/s 761 mmHg 48%
    04:00 +17°C° 0 mm 12 m/s 761 mmHg 44%
    05:00 +17°C° 0 mm 11 m/s 761 mmHg 41%
    06:00 +16°C° 0 mm 11 m/s 762 mmHg 37%
    07:00 +17°C° 0 mm 11 m/s 762 mmHg 37%
    08:00 +17°C° 0 mm 11 m/s 763 mmHg 37%
    09:00 +18°C° 0 mm 11 m/s 763 mmHg 37%
    10:00 +18°C° 0 mm 10 m/s 763 mmHg 36%
    11:00 +19°C° 0 mm 10 m/s 763 mmHg 35%
    12:00 +19°C° 0 mm 10 m/s 762 mmHg 33%
    13:00 +19°C° 0 mm 10 m/s 762 mmHg 33%
    14:00 +19°C° 0 mm 9 m/s 762 mmHg 34%
    15:00 +19°C° 0 mm 9 m/s 761 mmHg 34%
    16:00 +19°C° 0 mm 9 m/s 761 mmHg 37%
    17:00 +18°C° 0 mm 8 m/s 762 mmHg 40%
    18:00 +17°C° 0 mm 8 m/s 762 mmHg 42%
    19:00 +17°C° 0 mm 8 m/s 762 mmHg 43%
    20:00 +17°C° 0 mm 7 m/s 763 mmHg 43%
    21:00 +17°C° 0 mm 7 m/s 763 mmHg 44%
    22:00 +17°C° 0 mm 8 m/s 763 mmHg 44%
    23:00 +16°C° 0 mm 8 m/s 763 mmHg 45%

    29 Janeiro, Segunda-feira

    Tempo Temperatura Precipitação Vento Pressão Humidade
    00:00 +16°C° 0 mm 8 m/s 762 mmHg 46%
    01:00 +16°C° 0 mm 9 m/s 762 mmHg 46%
    02:00 +15°C° 0 mm 9 m/s 762 mmHg 46%
    03:00 +14°C° 0 mm 10 m/s 762 mmHg 46%
    04:00 +14°C° 0 mm 10 m/s 762 mmHg 46%
    05:00 +15°C° 0 mm 9 m/s 763 mmHg 46%
    06:00 +13°C° 0 mm 9 m/s 763 mmHg 47%
    07:00 +15°C° 0 mm 9 m/s 763 mmHg 45%
    08:00 +16°C° 0 mm 9 m/s 764 mmHg 44%
    09:00 +16°C° 0 mm 9 m/s 764 mmHg 43%
    10:00 +17°C° 0 mm 9 m/s 764 mmHg 40%
    11:00 +18°C° 0 mm 9 m/s 764 mmHg 37%
    12:00 +18°C° 0 mm 9 m/s 763 mmHg 35%
    13:00 +19°C° 0 mm 9 m/s 763 mmHg 34%
    14:00 +20°C° 0 mm 8 m/s 763 mmHg 33%
    15:00 +20°C° 0 mm 8 m/s 762 mmHg 31%
    16:00 +18°C° 0 mm 8 m/s 762 mmHg 34%
    17:00 +18°C° 0 mm 7 m/s 763 mmHg 36%
    18:00 +17°C° 0 mm 7 m/s 763 mmHg 39%
    19:00 +17°C° 0 mm 7 m/s 763 mmHg 39%
    20:00 +17°C° 0 mm 7 m/s 763 mmHg 40%
    21:00 +16°C° 0 mm 7 m/s 764 mmHg 40%
    22:00 +16°C° 0 mm 7 m/s 763 mmHg 40%
    23:00 +16°C° 0 mm 7 m/s 763 mmHg 40%
    Mostrar mais